Simultaneous Nadir Overpasses (SNOs) Predictions

Prediction of SNOs between AQUA and LANDSAT-8 Satellite Orbit:

Table of predicted SNOs for the next 14.0 days since TLE Epoch: 6/7/2025
Index Date (AQUA) Time (AQUA) Lat,Lon (AQUA) SZA (AQUA ) Date (LANDSAT-8) Time (LANDSAT-8) Lat,Lon (LANDSAT-8) SZA (LANDSAT-8 ) Distance(km) Time Diff (sec)
1 06/19/2025 07:10:03 -74.85, -99.36 128.50 06/19/2025 07:08:58 -74.82,-102.25 128.63 84.11 65
2 06/19/2025 07:59:27 75.13, 67.56 51.75 06/19/2025 07:58:18 75.09, 66.10 51.66 42.05 69
3 06/19/2025 08:48:50 -75.39,-125.51 128.02 06/19/2025 08:47:40 -75.38,-125.48 128.04 1.55 70
4 06/19/2025 09:38:08 75.38, 42.22 51.97 06/19/2025 09:37:05 75.40, 42.21 51.99 2.49 63
5 06/19/2025 10:27:26 -75.39,-150.15 128.02 06/19/2025 10:26:33 -75.39,-150.18 128.03 1.02 53
6 06/19/2025 11:16:45 75.43, 17.43 52.01 06/19/2025 11:15:58 75.41, 17.51 51.99 3.08 47
7 06/19/2025 12:06:02 -75.39,-174.79 128.02 06/19/2025 12:05:26 -75.39,-174.89 128.03 2.64 36
8 06/19/2025 12:55:21 75.42, -7.21 52.01 06/19/2025 12:54:51 75.41, -7.19 52.00 1.40 30
9 06/19/2025 13:44:39 -75.44, 160.42 127.98 06/19/2025 13:44:18 -75.45, 160.55 127.97 3.82 21
10 06/19/2025 14:33:57 75.42, -31.86 52.01 06/19/2025 14:33:44 75.42, -31.90 52.00 1.27 13
11 06/19/2025 15:23:15 -75.44, 135.78 127.98 06/19/2025 15:23:11 -75.46, 135.85 127.96 2.90 4
12 06/19/2025 16:12:33 75.42, -56.50 52.01 06/19/2025 16:12:37 75.42, -56.60 52.01 2.90 4
13 06/19/2025 17:01:51 -75.44, 111.13 127.98 06/19/2025 17:02:04 -75.46, 111.14 127.95 3.07 13
14 06/19/2025 17:51:10 75.47, -81.29 52.05 06/19/2025 17:51:29 75.48, -81.17 52.07 3.61 19
15 06/19/2025 18:40:28 -75.48, 86.35 127.94 06/19/2025 18:40:57 -75.47, 86.44 127.95 2.97 29
16 06/19/2025 19:29:46 75.47,-105.93 52.05 06/19/2025 19:30:22 75.49,-105.87 52.07 2.72 36
17 06/19/2025 20:19:04 -75.48, 61.70 127.94 06/19/2025 20:19:50 -75.48, 61.73 127.94 1.10 46
18 06/19/2025 21:08:22 75.47,-130.57 52.05 06/19/2025 21:09:15 75.49,-130.57 52.08 2.96 53
19 06/19/2025 21:57:40 -75.48, 37.06 127.94 06/19/2025 21:58:43 -75.48, 37.03 127.94 0.84 63
20 06/19/2025 22:46:59 75.51,-155.36 52.09 06/19/2025 22:48:08 75.50,-155.28 52.09 2.94 69
21 06/19/2025 23:36:22 -75.77, 11.54 127.68 06/19/2025 23:37:31 -75.73, 13.04 127.66 41.32 69
22 06/20/2025 00:25:46 76.05, 178.34 52.58 06/20/2025 00:26:50 76.05,-178.37 52.69 88.21 64



Historial Predications of SNOs between AQUA and LANDSAT-8
